Temp
77 66 63 66 66 66 67 66 63 64 74 68 65 63 65 70 69 71 70 73 77 79 78 78 84 84 82 84 79 77 75 74 74 73 74 73 73 75 76 78 80 80 80 80
70 64 77 81 74 73 69 66 63 69 72 65 63 59 64 68 70 71 72 71 72 72 73 76 81 84 81 81 77 77 77 73 75 74 75 75 74 79 79 79 78 79 81 81
67 74 85 82 78 73 70 67 67 68 70 68 64 55 57 67 75 76 75 75 72 69 68 70 74 76 82 80 77 78 75 76 76 74 71 72 71 77 77 74 76 78 80 81
73 83 83 76 75 75 61 80 76 74 66 54 68 48 55 63 66 71 78 73 70 71 72 70 71 71 73 81 81 78 77 76 76 74 73 71 70 69 73 75 76 77 80 80
71 77 76 74 77 81 73 83 78 77 66 61 61 56 54 62 63 65 73 75 71 71 73 71 73 73 76 75 82 79 77 76 77 75 72 71 68 69 71 74 75 75 77 79
76 86 80 78 84 83 86 77 74 71 62 51 62 63 55 55 62 66 70 76 76 73 73 73 75 73 71 74 77 81 77 75 76 75 76 72 71 70 69 72 75 75 76 77
73 77 81 83 73 79 73 62 49 50 46 47 64 63 57 66 70 69 72 75 75 77 74 73 71 70 69 72 73 80 77 75 75 76 76 73 71 71 70 72 74 73 75 76
60 60 75 83 74 69 69 63 51 46 44 50 63 54 62 72 73 75 77 75 74 74 78 70 71 69 70 72 73 75 77 75 75 75 74 74 74 72 73 76 75 79 76 77
61 67 83 84 83 76 69 59 69 58 53 54 59 68 72 77 71 73 73 73 73 77 76 73 73 73 73 73 74 77 77 76 76 74 75 74 74 75 76 77 76 76 74 77
71 63 76 81 83 82 72 73 59 57 51 47 51 55 61 68 72 72 71 67 69 72 76 77 75 72 74 76 75 75 79 77 78 78 76 76 75 75 76 75 75 72 72 73
74 66 70 75 69 68 66 63 63 61 60 48 47 53 70 70 69 66 67 67 72 73 74 80 78 74 75 79 76 79 79 77 76 79 78 76 74 76 76 75 76 72 71 72
76 66 59 69 79 82 75 68 64 54 55 51 49 53 76 72 69 69 72 73 74 77 76 79 80 78 77 77 77 77 74 73 71 70 74 75 76 76 75 75 77 72 69 69
72 62 53 59 70 72 70 73 68 66 61 57 49 52 77 77 74 71 69 69 73 79 80 79 76 72 72 74 73 73 70 69 70 68 69 74 75 78 75 75 75 76 74 72
79 66 60 54 61 64 63 70 72 62 54 51 55 57 71 72 73 75 75 76 76 77 78 76 75 75 75 76 73 72 69 70 70 72 71 71 76 80 80 80 75 75 75 74
73 61 59 68 73 74 70 70 72 66 64 59 60 62 61 68 73 74 77 77 77 76 77 76 74 74 75 74 75 71 70 69 70 69 69 71 71 74 74 75 75 75 74 75
73 61 59 61 73 70 69 73 74 72 71 68 63 64 72 72 74 76 77 77 75 76 78 77 77 77 76 74 73 75 72 70 70 68 70 69 68 68 69 71 74 75 76 76
66 63 60 54 69 67 57 68 68 71 73 70 62 66 72 72 73 72 73 76 76 77 77 77 77 75 75 74 74 72 71 72 69 68 69 68 67 67 68 68 70 73 75 73
66 62 61 56 57 46 64 77 77 75 76 75 74 74 75 73 73 75 77 75 76 77 77 77 76 75 75 76 75 73 73 72 71 69 68 68 66 66 70 71 69 73 74 74
71 64 57 53 52 61 66 72 73 71 67 77 75 75 77 77 75 72 80 79 75 75 75 74 75 74 74 75 76 73 73 72 72 71 69 70 68 68 71 73 74 73 74 73
66 66 59 54 49 49 64 76 83 79 58 78 78 76 75 73 61 64 76 79 77 78 77 76 76 75 74 74 75 72 71 70 70 70 71 73 72 71 72 71 72 73 74 73
57 56 55 59 52 60 72 81 81 58 62 75 78 75 71 66 67 71 76 76 77 77 77 77 76 74 74 74 73 71 70 69 70 71 71 71 72 73 74 73 73 72 72 72
58 54 53 56 53 50 75 79 67 67 70 77 75 74 72 72 73 75 75 75 76 75 75 75 72 72 74 74 72 70 69 70 70 70 69 70 71 72 72 70 71 71 71 70
56 61 57 61 59 69 75 75 76 77 74 75 73 76 77 76 75 75 72 72 73 73 72 73 71 70 72 74 72 70 68 69 69 68 68 69 70 69 67 65 64 66 68 67
63 66 59 61 67 72 78 79 81 82 77 80 78 79 78 74 75 73 72 70 71 71 71 72 71 69 69 70 71 68 69 69 68 67 67 68 67 66 64 63 61 62 63 64
60 61 60 59 67 71 74 79 79 83 82 81 82 80 78 76 73 73 70 69 69 69 69 68 67 67 68 69 68 68 68 68 67 66 66 66 66 66 58 50 50 53 55 53
61 57 54 54 66 66 67 74 79 79 79 80 79 77 78 75 73 72 69 68 68 68 68 67 67 66 67 68 68 68 68 67 65 64 66 66 66 66 63 56 51 47 46 45
MSLP
1004.07 1004.74 1004.79 1005.67 1005.92 1007.65 1007.83 1007.82 1008.02 1008.74 1008.71 1009.24 1010.75 1011.50 1011.84 1011.62 1011.52 1011.12 1011.23 1011.18 1010.83 1010.74 1010.97 1011.54 1011.76 1012.23 1012.80 1013.10 1013.49 1014.25 1014.96 1015.26 1015.43 1016.02 1016.23 1016.31 1016.37 1016.22 1016.43 1016.35 1016.47 1016.32 1016.18 1016.73
1004.33 1004.14 1003.53 1003.96 1004.73 1005.24 1006.26 1006.81 1007.38 1007.54 1008.34 1009.37 1010.67 1011.26 1010.86 1011.01 1010.86 1010.72 1010.63 1011.16 1011.44 1011.46 1011.44 1011.92 1012.46 1012.42 1012.84 1013.23 1013.71 1014.23 1014.76 1015.22 1015.33 1015.48 1015.82 1016.04 1016.14 1016.06 1016.24 1016.12 1016.30 1016.27 1016.08 1016.16
1003.79 1002.78 1002.37 1002.52 1003.21 1003.63 1003.92 1004.87 1005.27 1005.82 1007.35 1009.10 1010.00 1011.67 1011.13 1010.33 1010.44 1010.72 1010.83 1010.77 1011.40 1011.90 1012.53 1013.34 1013.03 1013.39 1013.02 1013.26 1013.64 1014.00 1014.62 1015.04 1015.08 1015.54 1015.93 1015.83 1015.76 1015.86 1016.25 1016.48 1016.52 1016.50 1016.25 1016.27
1003.06 1001.87 1001.63 1001.40 1001.76 1001.96 1002.48 1002.79 1003.78 1004.69 1006.38 1007.72 1008.31 1010.80 1011.24 1010.90 1010.43 1009.73 1009.55 1010.42 1011.23 1011.94 1012.57 1013.13 1013.79 1013.86 1013.81 1013.09 1013.28 1013.89 1014.18 1014.86 1015.02 1015.52 1015.44 1016.01 1015.87 1016.12 1016.33 1016.28 1016.37 1016.31 1016.34 1016.54
1002.37 1001.52 1001.05 1001.03 1001.15 1001.22 1001.60 1001.59 1002.71 1003.83 1005.60 1006.34 1008.22 1008.80 1009.93 1010.13 1009.92 1008.71 1008.53 1009.07 1010.32 1011.33 1011.42 1012.08 1013.24 1013.66 1013.75 1013.71 1013.02 1013.42 1013.98 1014.51 1014.96 1015.16 1015.39 1015.76 1015.70 1016.25 1016.44 1016.37 1016.56 1016.31 1016.16 1016.26
1001.79 1000.99 1000.71 1000.44 1000.46 1000.63 1000.89 1001.74 1002.69 1003.76 1005.55 1006.68 1006.45 1007.78 1008.75 1009.02 1007.57 1008.03 1008.20 1008.17 1009.21 1010.29 1010.97 1011.49 1011.63 1013.17 1014.30 1013.69 1013.21 1013.16 1013.61 1014.17 1014.61 1015.11 1015.15 1015.51 1015.80 1016.14 1016.17 1016.11 1016.15 1016.32 1016.35 1016.36
1001.63 1000.88 1000.10 1000.02 1000.24 1000.34 1000.88 1002.24 1004.26 1006.00 1007.05 1007.62 1006.63 1006.44 1006.70 1007.06 1006.60 1006.37 1006.14 1006.97 1008.29 1009.17 1010.10 1011.63 1012.40 1013.47 1013.76 1013.02 1013.04 1013.41 1013.59 1013.97 1014.35 1014.76 1015.09 1015.44 1015.43 1015.66 1015.99 1015.98 1015.88 1016.22 1016.40 1016.46
1001.75 1000.88 999.91 999.55 999.85 1000.26 1001.11 1002.33 1004.35 1006.05 1007.57 1006.89 1006.03 1006.06 1005.28 1005.45 1005.65 1005.55 1005.58 1006.40 1008.02 1008.80 1009.80 1011.24 1011.99 1012.19 1012.34 1011.94 1012.94 1013.46 1013.47 1013.66 1014.10 1014.44 1014.68 1015.13 1015.43 1015.51 1015.65 1015.47 1015.50 1015.67 1015.82 1015.85
1001.10 1000.21 999.25 999.27 999.41 999.94 1000.67 1001.83 1002.67 1004.62 1005.96 1006.84 1006.35 1005.27 1004.34 1004.89 1005.66 1005.68 1006.21 1007.05 1008.10 1008.76 1009.02 1010.02 1010.79 1010.96 1011.30 1011.79 1012.45 1012.64 1012.81 1013.02 1013.51 1014.09 1014.41 1014.74 1015.12 1015.30 1015.38 1015.15 1015.22 1015.53 1015.56 1015.45
1000.13 1000.40 999.28 999.12 999.29 999.54 1000.11 1000.93 1002.60 1004.33 1005.91 1007.28 1007.87 1007.31 1004.81 1005.00 1005.27 1005.99 1006.64 1006.86 1007.20 1007.69 1008.69 1009.24 1009.70 1010.61 1011.21 1011.29 1011.85 1012.80 1012.30 1012.16 1012.15 1012.87 1013.85 1014.26 1014.65 1015.00 1015.23 1015.12 1015.31 1015.48 1015.17 1015.04
999.49 999.99 999.72 999.29 999.46 999.90 1000.28 1000.90 1002.07 1003.36 1004.84 1006.36 1007.55 1006.20 1003.96 1004.19 1005.39 1006.27 1006.75 1006.67 1005.95 1007.15 1007.81 1007.56 1008.39 1009.48 1010.22 1010.77 1011.38 1010.42 1011.33 1012.58 1012.76 1012.40 1012.86 1013.58 1014.10 1014.53 1014.88 1015.04 1015.21 1015.21 1015.14 1014.82
998.79 999.35 999.85 999.43 999.22 999.23 999.94 1000.50 1001.55 1003.37 1004.40 1005.81 1006.44 1005.32 1003.72 1004.11 1005.49 1006.08 1006.60 1006.72 1006.26 1006.61 1007.04 1006.53 1007.09 1008.58 1009.78 1010.11 1010.50 1010.39 1011.52 1010.84 1013.20 1013.77 1013.48 1013.03 1013.82 1014.23 1014.75 1015.00 1014.97 1015.74 1015.10 1015.26
998.28 999.27 999.99 1000.06 999.65 999.40 999.84 1000.21 1000.70 1001.53 1002.80 1004.79 1006.40 1005.87 1004.25 1004.06 1005.41 1006.00 1006.25 1006.83 1006.79 1006.11 1006.05 1006.63 1007.49 1009.11 1009.95 1010.74 1010.87 1010.95 1011.86 1012.72 1012.02 1012.43 1013.06 1013.29 1013.35 1013.87 1014.23 1014.51 1014.61 1014.65 1015.14 1015.67
997.68 998.81 999.99 1000.51 1000.88 1001.57 1001.13 1000.66 1000.78 1001.23 1002.99 1004.68 1005.24 1005.38 1004.94 1004.83 1004.87 1005.50 1005.91 1006.10 1006.24 1006.37 1006.41 1006.85 1007.48 1008.08 1008.78 1009.51 1010.05 1010.43 1010.94 1011.17 1010.72 1011.21 1012.40 1013.02 1013.08 1013.15 1013.60 1013.72 1014.32 1014.46 1014.44 1014.61
997.97 999.36 999.94 1000.55 1000.64 1001.41 1001.10 1000.91 1000.79 1001.10 1001.81 1002.77 1003.56 1004.54 1005.38 1005.12 1004.69 1004.90 1005.18 1005.72 1006.25 1006.52 1006.80 1006.94 1007.59 1008.23 1008.70 1009.21 1009.80 1010.73 1011.16 1011.34 1011.91 1012.98 1013.49 1013.63 1013.23 1013.26 1013.01 1012.98 1013.25 1013.82 1014.14 1014.07
998.97 999.67 1000.39 1000.83 1000.93 1001.64 1001.80 1001.84 1001.31 1000.05 1000.37 1000.97 1002.13 1003.74 1003.77 1003.53 1003.95 1003.91 1004.55 1005.29 1006.09 1006.39 1006.73 1007.03 1007.51 1008.14 1008.79 1009.28 1009.87 1010.17 1010.88 1011.83 1012.86 1013.08 1013.00 1013.78 1012.96 1013.57 1013.92 1013.64 1012.62 1012.88 1013.26 1013.66
1000.38 1000.82 1001.29 1001.53 1001.45 1001.88 1002.18 1001.21 1000.68 1000.67 999.73 1000.16 1001.64 1002.32 1002.68 1003.35 1003.77 1004.01 1004.59 1004.91 1005.50 1005.97 1006.46 1006.83 1007.40 1008.07 1008.69 1009.23 1009.59 1010.20 1010.81 1011.90 1012.90 1013.28 1012.99 1012.46 1011.70 1012.23 1012.49 1013.01 1013.37 1012.63 1012.66 1012.90
1000.81 1001.56 1001.73 1002.11 1002.17 1002.56 1001.89 1000.73 1000.34 1000.32 999.46 999.69 1000.45 1001.50 1002.08 1002.87 1003.60 1003.97 1004.16 1004.81 1005.42 1005.89 1006.46 1006.93 1007.26 1007.94 1008.47 1008.82 1009.53 1009.95 1010.40 1011.10 1011.67 1012.07 1012.43 1012.56 1011.90 1012.44 1012.45 1012.27 1012.67 1012.33 1011.99 1012.15
1000.84 1001.84 1003.18 1002.89 1002.42 1001.73 1001.19 1000.25 1000.82 999.96 999.67 999.70 1000.46 1001.46 1002.35 1002.98 1003.62 1004.27 1004.26 1004.70 1005.47 1006.00 1006.56 1007.06 1007.52 1008.03 1008.38 1008.86 1009.39 1009.89 1010.30 1010.71 1010.93 1011.35 1011.75 1012.09 1012.29 1012.13 1011.84 1011.65 1011.41 1011.14 1011.35 1011.47
1001.51 1002.04 1003.56 1004.16 1003.80 1002.18 1000.56 999.76 999.05 999.13 999.78 999.81 1000.37 1001.31 1002.33 1003.14 1004.42 1004.92 1004.62 1005.04 1005.66 1005.96 1006.40 1006.92 1007.36 1007.68 1008.10 1008.49 1008.91 1009.56 1010.06 1010.54 1011.06 1010.98 1011.20 1011.14 1011.17 1011.33 1011.14 1010.96 1010.74 1010.63 1010.64 1010.77
1002.17 1002.54 1003.27 1003.47 1003.62 1002.35 1000.37 999.25 999.32 999.94 1000.51 999.92 1000.46 1001.45 1002.44 1003.56 1004.24 1004.82 1004.87 1005.51 1005.78 1006.23 1006.68 1007.03 1007.41 1007.81 1008.05 1008.27 1008.61 1009.31 1009.79 1010.16 1010.45 1010.68 1010.41 1010.46 1010.46 1010.36 1010.27 1010.17 1010.19 1010.34 1010.38 1010.47
1002.12 1002.54 1003.39 1003.70 1003.22 1002.68 1000.51 999.48 999.29 999.95 999.70 999.84 1000.70 1001.70 1002.73 1003.43 1004.19 1004.75 1005.32 1005.87 1006.32 1006.77 1007.08 1007.40 1007.73 1007.88 1007.82 1008.13 1008.52 1009.17 1009.54 1009.81 1010.03 1010.35 1010.46 1010.22 1010.11 1010.04 1010.15 1010.21 1010.25 1010.25 1010.51 1010.69
1002.02 1001.92 1002.50 1002.50 1002.10 1000.94 1000.56 1000.70 999.55 999.34 1000.06 1000.27 1001.14 1001.91 1002.53 1003.54 1004.33 1004.97 1005.80 1006.31 1006.75 1007.01 1007.30 1007.58 1007.90 1008.14 1008.08 1008.06 1008.22 1008.92 1009.46 1009.69 1010.05 1010.07 1010.15 1010.30 1010.12 1010.02 1010.34 1010.56 1010.90 1011.15 1011.06 1011.10
1002.40 1002.22 1002.20 1002.42 1001.51 1000.66 1000.52 1000.75 999.30 999.06 999.72 1000.16 1001.06 1001.84 1002.49 1003.48 1004.17 1005.14 1005.81 1006.52 1007.06 1007.26 1007.63 1007.89 1008.11 1008.24 1008.36 1008.26 1008.47 1008.82 1009.21 1009.39 1009.86 1010.10 1010.05 1010.15 1010.29 1010.60 1010.94 1011.37 1011.74 1011.80 1011.82 1011.74
1005.36 1004.64 1003.70 1002.32 1001.42 1000.85 1000.26 1000.34 998.89 999.01 999.64 1000.10 1000.66 1001.62 1002.29 1002.98 1004.11 1005.04 1005.97 1006.69 1007.14 1007.53 1007.87 1008.12 1008.33 1008.40 1008.38 1008.36 1008.62 1008.88 1009.03 1009.32 1009.66 1009.87 1009.97 1010.14 1010.30 1010.71 1011.32 1012.24 1012.73 1012.56 1012.39 1012.47
1005.78 1005.55 1005.30 1004.45 1003.07 1001.46 1000.85 1000.02 999.78 999.22 999.41 1000.10 1000.73 1001.47 1002.10 1002.94 1004.13 1005.09 1006.15 1006.65 1007.19 1007.66 1007.98 1008.22 1008.44 1008.55 1008.58 1008.51 1008.51 1008.50 1008.58 1008.96 1009.45 1009.77 1009.87 1010.12 1010.43 1010.76 1011.32 1012.10 1012.90 1013.06 1012.86 1012.44
Wind_Speed
10 3 8 10 12 8 12 5 8 4 11 5 4 4 11 9 6 12 7 3 5 14 7 7 15 14 12 11 8 11 10 8 5 2 2 0 2 1 3 5 7 4 2 8
7 9 14 12 17 20 13 8 8 9 17 6 9 5 4 3 11 10 8 6 2 6 8 8 8 15 12 12 8 11 12 8 6 4 3 2 2 2 4 3 5 5 3 3
10 14 16 11 16 12 16 9 8 9 17 9 13 4 4 7 11 11 11 10 6 11 9 3 3 4 12 13 11 12 9 8 6 6 3 2 3 1 3 2 2 4 5 4
10 16 13 4 5 6 5 4 13 10 10 6 7 3 11 11 9 13 18 13 14 13 13 9 10 7 6 13 12 11 10 8 6 8 5 5 5 3 3 5 4 5 7 5
12 10 6 8 6 9 9 7 5 3 9 3 11 2 1 6 9 14 18 20 18 16 19 21 15 6 5 6 13 12 12 10 7 6 7 6 4 5 3 1 5 5 5 6
10 11 7 10 9 10 9 4 2 5 1 1 9 7 7 8 9 5 5 14 19 19 17 17 12 6 9 6 3 12 11 11 8 8 8 9 10 8 3 3 6 5 4 3
11 11 6 4 6 7 2 5 4 7 8 5 14 3 7 10 10 10 22 16 9 20 20 14 14 12 10 8 5 10 12 11 9 8 7 8 8 7 7 6 4 5 4 3
7 9 9 8 9 9 8 8 7 7 6 5 7 7 6 19 16 11 7 7 4 9 16 17 18 15 14 18 9 8 11 11 10 8 9 6 7 5 5 6 4 4 5 3
4 9 9 9 8 4 6 3 10 5 1 2 4 9 7 13 16 13 10 3 4 6 22 26 21 18 19 17 16 16 15 12 11 8 8 7 6 6 6 7 5 3 5 5
11 3 5 10 7 9 7 2 4 4 2 3 6 14 3 8 9 16 12 7 3 2 10 20 19 13 18 19 10 15 15 17 16 12 8 7 7 7 6 5 3 6 5 5
10 4 3 5 6 8 2 4 4 3 5 7 7 7 7 6 19 16 10 7 7 5 11 14 20 19 16 15 13 19 18 12 11 12 11 8 7 7 6 5 4 6 6 7
10 5 4 10 9 11 10 8 8 6 5 4 3 7 6 5 20 17 15 14 11 11 10 6 11 19 15 15 15 11 10 9 3 5 6 9 7 6 6 6 6 12 8 6
6 3 1 7 6 3 7 9 7 1 4 4 7 6 2 6 19 15 14 7 8 6 8 8 8 13 10 12 8 6 11 13 11 6 5 9 11 11 9 8 8 7 9 12
6 5 8 7 4 3 6 10 12 1 5 3 5 1 10 3 10 14 11 9 7 7 6 6 6 5 6 10 15 13 10 9 7 9 7 5 11 14 13 11 8 7 7 7
5 3 1 7 9 11 2 14 18 8 8 6 9 9 9 11 10 12 14 10 9 9 7 6 7 7 6 7 8 11 12 14 5 2 6 7 4 4 6 8 8 8 7 8
8 3 1 2 11 9 7 23 16 2 3 4 10 9 14 9 5 10 13 12 11 9 9 7 8 8 6 6 6 6 9 6 7 8 10 3 4 6 10 16 7 7 8 8
4 2 2 5 6 6 5 7 6 15 3 3 9 8 9 8 8 6 8 9 10 9 9 9 9 8 7 6 6 4 5 10 9 12 10 8 5 7 14 10 15 8 9 7
2 5 2 4 5 3 9 11 9 10 4 6 12 10 11 10 8 9 8 8 7 8 8 7 7 7 4 6 7 5 5 6 7 7 7 7 8 6 13 12 15 12 7 9
4 4 4 1 4 5 7 12 13 9 3 4 7 12 13 8 9 5 8 7 9 9 8 8 8 7 7 7 6 6 4 3 2 5 7 11 12 13 14 15 14 8 7 5
5 8 6 3 3 5 7 3 2 6 2 5 5 8 12 10 6 4 9 10 8 9 7 6 6 4 5 4 5 6 4 5 4 2 1 3 5 7 7 7 7 4 5 6
4 2 6 8 3 8 7 9 7 7 6 3 7 12 10 7 7 7 10 9 9 8 7 6 6 4 3 5 7 6 6 3 2 2 5 4 5 5 5 4 2 3 4 4
7 6 5 3 4 7 7 7 8 7 2 8 10 13 14 13 11 10 9 9 8 8 8 7 5 3 3 3 6 4 6 5 4 1 4 5 5 2 2 1 1 2 1 2
5 6 6 9 9 9 1 18 6 8 7 6 13 15 16 15 10 10 9 10 8 9 6 5 5 5 3 3 6 6 6 6 2 3 5 3 3 3 5 5 4 3 3 1
9 6 5 4 4 6 12 13 10 9 8 8 12 15 13 10 11 11 9 8 7 7 6 3 4 4 5 5 6 7 6 4 1 3 3 3 4 4 4 3 3 3 3 2
4 12 7 4 6 3 6 11 6 8 8 8 9 11 9 10 10 13 9 8 8 7 5 4 4 3 3 4 7 5 4 2 1 2 3 3 4 4 4 5 3 3 2 1
0 2 3 4 9 5 6 2 12 8 10 10 8 7 8 11 12 11 9 7 7 7 3 1 2 4 4 5 2 4 2 1 2 2 3 3 3 3 4 4 3 7 2 3
Wind_Direction
250 234 236 177 153 229 231 151 166 259 197 122 147 50 354 179 173 254 197 329 285 151 101 39 154 153 155 164 148 140 144 154 143 131 147 152 242 241 89 134 149 170 252 141
277 227 243 189 172 198 192 179 190 232 164 110 115 109 276 249 196 216 239 181 275 91 98 49 141 157 166 167 155 144 148 166 167 154 182 124 260 256 145 155 149 168 193 235
226 247 241 195 188 196 217 199 165 198 171 79 122 83 234 284 208 212 229 191 107 125 128 74 265 211 183 172 162 164 156 164 178 132 95 42 9 329 98 132 159 176 202 239
231 254 261 218 319 298 311 137 161 184 162 199 198 207 217 230 207 204 213 162 157 158 151 129 253 278 356 183 167 168 160 168 192 141 174 164 194 170 195 168 193 196 182 215
252 256 288 297 228 249 253 169 255 244 193 200 200 104 85 150 200 210 203 189 169 173 167 174 212 208 336 285 177 163 168 167 185 180 185 172 168 209 235 234 187 198 203 197
253 274 229 223 252 247 249 172 211 299 306 357 221 158 209 203 206 158 218 190 182 170 178 188 187 120 272 248 267 172 166 170 183 183 199 171 174 189 190 272 172 179 195 193
263 257 236 250 248 243 57 3 12 19 7 232 287 332 223 191 195 201 206 200 176 171 187 158 166 176 215 230 236 195 177 181 184 181 196 169 180 179 199 234 165 162 173 180
206 256 210 203 210 199 192 176 152 177 206 249 317 140 230 182 192 220 250 168 166 177 169 155 163 152 207 213 218 231 188 180 187 178 189 194 186 191 212 203 185 181 189 191
254 275 169 186 224 194 226 171 206 153 321 82 359 316 74 164 199 222 216 203 130 204 160 171 177 183 197 205 217 214 187 185 185 193 183 186 209 217 212 221 190 116 122 83
254 295 193 192 186 263 192 232 38 318 232 127 27 274 151 154 147 98 120 102 71 210 174 177 189 189 196 214 208 210 195 189 187 181 176 183 195 216 222 231 186 140 145 116
234 165 179 199 182 205 283 265 262 170 149 146 166 252 193 142 124 125 146 143 136 287 284 193 181 195 196 189 186 193 187 185 191 188 176 174 190 206 221 231 207 163 141 162
212 206 195 211 236 184 212 229 183 129 289 82 95 302 218 127 136 131 148 173 184 215 251 159 145 171 182 184 198 208 140 116 267 298 285 171 190 202 203 213 231 154 179 186
223 225 333 313 352 234 189 252 250 293 83 130 128 252 74 111 135 155 152 191 222 140 94 129 116 139 164 179 182 171 140 169 190 209 232 216 189 203 206 198 212 197 187 177
108 164 160 195 180 177 339 329 325 313 81 198 167 157 356 200 113 134 137 142 133 130 127 125 137 130 133 157 169 170 173 191 208 224 229 241 194 200 214 204 199 205 201 202
116 174 302 127 177 171 114 324 307 243 178 144 214 147 117 250 142 150 150 155 141 140 127 126 123 99 79 87 110 163 181 196 170 277 332 311 334 289 218 195 187 197 193 207
334 214 206 308 114 150 155 241 277 10 358 14 136 150 202 171 180 144 157 150 154 164 162 131 118 113 103 84 72 95 171 178 181 139 224 340 347 332 309 307 212 197 204 206
17 328 148 254 159 81 5 268 323 304 200 234 137 204 170 147 159 175 150 149 165 160 147 133 129 134 128 139 127 117 114 138 150 159 164 165 154 290 285 272 296 229 216 205
294 15 193 220 117 123 229 286 268 284 67 74 126 149 146 134 131 126 112 128 125 111 119 137 135 125 162 156 133 140 129 123 131 152 155 156 139 217 267 270 256 237 220 213
180 93 342 156 235 237 212 224 218 224 167 94 124 129 131 122 98 119 129 108 118 111 106 107 109 109 85 80 139 149 173 158 170 178 178 185 195 212 236 240 238 226 222 234
110 148 124 62 32 269 186 77 246 167 217 124 127 130 137 125 110 218 113 113 112 114 114 104 111 108 114 162 140 126 110 83 80 6 260 232 216 227 232 237 248 238 220 214
124 68 167 243 173 283 277 158 131 115 204 308 158 127 113 108 149 151 97 94 105 112 111 111 118 144 165 167 151 144 143 184 151 38 329 317 265 222 242 248 232 254 255 236
173 146 155 161 169 259 305 172 137 206 97 86 95 121 117 121 118 115 118 117 108 93 81 59 48 284 233 123 129 137 105 132 100 14 305 298 285 269 211 171 17 348 260 258
269 166 195 173 199 215 78 298 191 142 128 97 128 134 134 134 139 144 127 123 114 104 85 60 43 10 342 222 153 151 128 114 85 344 313 286 296 91 53 47 24 2 6 291
345 37 163 93 268 143 184 252 191 136 136 125 140 148 146 146 135 131 122 117 113 109 99 76 35 353 2 53 64 107 104 101 105 297 317 257 162 124 93 77 38 5 6 359
310 316 306 209 243 52 312 311 94 113 133 133 132 148 147 142 127 128 125 117 115 102 80 58 1 314 297 103 116 121 106 68 277 312 321 166 156 143 99 73 32 354 22 344
172 330 9 307 336 132 253 281 285 147 141 157 144 117 124 120 128 117 116 118 114 103 88 81 349 48 7 13 126 128 134 144 111 342 297 160 173 152 150 149 141 64 25 334